Location: ?????
(42.2640°N, 43.4211°E)
Time: 14:52:45
(UTC+00:00)

ALOS - Pass Details

Date: 07 August 2020
Orbit: 683 x 685 km, 97.9° (Epoch: 20 September)

Event Time Altitude Azimuth Distance (km) Brightness Sun altitude
Rises 01:23:57 0° 20° (NNE) 3,060 6.5 -7.7°
Reaches altitude 10° 01:26:19 10° 27° (NNE) 2,139 5.8 -7.3°
Maximum altitude 01:30:45 41° 98° (E) 997 3.7 -6.6°
Drops below altitude 10° 01:35:07 10° 168° (SSE) 2,123 4.6 -5.9°
Sets 01:37:28 0° 176° (S) 3,033 5.4 -5.5°
